Date,TemperatureHighF,TemperatureAvgF,TemperatureLowF,DewpointHighF,DewpointAvgF,DewpointLowF,HumidityHigh,HumidityAvg,HumidityLow,PressureMaxIn,PressureMinIn,WindSpeedMaxMPH,WindSpeedAvgMPH,GustSpeedMaxMPH,PrecipitationSumIn
2013-1-1,34.9,31.1,27.1,27.2,22.9,20.2,86,72,61,29.80,29.22,6,2,8,0.00
2013-1-2,27.3,22.5,18.3,22.2,18.4,14.9,92,84,74,29.61,29.24,5,0,3,0.00
2013-1-3,30.0,26.5,20.7,23.8,19.3,13.7,85,74,66,29.72,29.61,5,1,6,0.00
2013-1-4,23.7,18.1,12.6,17.8,12.5,8.2,89,79,71,29.89,29.70,3,0,0,0.00
2013-1-5,18.7,15.3,13.2,15.0,11.1,8.6,91,83,77,29.88,29.45,2,0,4,0.00
2013-1-6,18.8,14.6,9.5,14.0,9.9,5.7,90,81,72,29.46,29.29,2,0,0,0.00
2013-1-7,15.6,9.2,0.3,12.6,5.5,-3.2,92,85,79,29.29,29.26,2,0,2,0.00
2013-1-8,0.0,-2.8,-6.9,-1.9,-6.3,-10.9,96,85,77,30.14,29.27,1,0,0,0.00
2013-1-9,2.3,-1.7,-5.6,-0.6,-5.4,-10.0,94,84,74,30.21,29.95,1,0,0,0.00
2013-1-10,11.5,7.9,1.9,9.1,5.0,-1.5,94,88,83,30.13,29.93,2,0,0,0.00
2013-1-11,13.8,11.9,6.8,12.1,9.5,3.4,96,90,82,30.24,29.92,1,0,0,0.00
2013-1-12,27.8,20.0,12.6,26.3,18.2,8.2,99,93,81,30.23,29.78,0,0,0,0.00
2013-1-13,35.4,31.5,27.9,34.7,30.7,26.2,99,97,91,29.81,29.59,2,0,0,0.00
2013-1-14,37.9,32.9,24.6,37.1,32.3,22.1,100,98,90,29.91,29.31,6,1,3,0.36
2013-1-15,24.6,11.8,7.7,21.1,9.4,4.8,92,90,87,30.26,29.91,7,2,14,0.00
2013-1-16,12.9,9.0,6.1,10.3,6.4,3.2,91,89,84,30.27,29.89,3,0,5,0.00
2013-1-17,12.6,1.0,-11.9,10.3,-2.9,-15.7,91,83,77,30.21,29.85,5,1,1,0.00
2013-1-18,-0.8,-9.4,-15.0,-6.1,-13.9,-19.9,87,80,71,30.46,30.21,5,0,1,0.00
2013-1-19,8.1,2.8,-9.2,1.1,-3.8,-15.0,90,74,60,30.46,30.26,6,2,6,0.00
2013-1-20,10.8,6.7,3.6,7.7,3.3,-0.6,93,85,81,30.26,30.06,0,0,0,0.00
2013-1-21,7.8,4.4,-0.8,5.0,1.0,-5.0,91,85,78,30.19,30.07,0,0,0,0.00
2013-1-22,12.9,6.0,1.5,8.5,1.5,-2.8,89,81,74,30.07,29.80,6,1,0,0.00
2013-1-23,8.3,4.6,0.0,2.3,-2.5,-8.6,82,72,65,29.80,29.67,9,4,4,0.00
2013-1-24,0.0,-5.9,-12.7,-6.8,-14.5,-19.5,84,66,59,29.88,29.73,9,5,9,0.00
2013-1-25,-11.0,-20.4,-29.4,-17.6,-25.7,-36.9,100,76,65,30.04,29.88,3,0,4,0.00
2013-1-26,-21.1,-27.5,-33.0,-24.6,-32.5,-38.6,93,76,64,30.17,30.04,0,0,0,0.00
2013-1-27,-30.7,-35.7,-39.3,-33.9,-40.9,-45.7,100,74,63,30.59,30.17,0,0,0,0.00
2013-1-28,-6.3,-24.9,-38.0,-11.1,-30.2,-46.1,98,76,54,30.62,30.10,7,1,3,0.00
2013-1-29,-3.6,-7.9,-11.9,-9.9,-14.6,-18.0,87,72,58,30.10,29.93,6,1,8,0.00
2013-1-30,9.7,1.2,-8.1,6.5,-3.5,-12.7,98,80,74,29.99,29.74,3,0,0,0.00
2013-1-31,12.9,7.3,3.7,9.5,3.9,-0.5,91,86,80,30.15,29.77,2,0,2,0.00
2013-2-1,17.4,6.0,-0.2,13.4,2.5,-4.0,95,85,75,30.21,29.93,3,0,2,0.00
2013-2-2,26.5,12.5,5.7,19.4,8.0,2.2,88,82,70,29.94,29.91,3,0,1,0.00
2013-2-3,18.0,10.4,7.0,13.2,6.8,3.4,94,85,80,29.91,29.39,2,0,2,0.00
2013-2-4,14.7,10.6,7.5,11.6,7.9,4.5,96,88,83,29.72,29.53,1,0,0,0.00
2013-2-5,9.9,4.2,-0.8,7.5,1.2,-4.5,92,87,81,29.72,29.65,0,0,0,0.00
2013-2-6,6.3,2.2,-1.1,3.0,-1.0,-4.5,92,86,83,29.77,29.65,0,0,0,0.00
2013-2-7,12.2,3.8,-2.9,9.4,0.7,-7.1,93,86,82,29.75,29.36,0,0,0,0.00
2013-2-8,9.0,3.3,0.1,6.6,0.2,-3.3,95,86,83,29.87,29.39,0,0,0,0.00
2013-2-9,35.8,22.0,4.6,29.9,18.2,1.6,97,85,72,29.87,29.11,6,2,0,0.00
2013-2-10,38.5,23.5,8.1,33.8,20.0,5.0,92,87,75,29.55,29.04,5,1,6,0.01
2013-2-11,19.9,14.2,5.4,16.9,11.7,1.8,95,90,85,29.78,29.55,3,0,3,0.00
2013-2-12,21.6,8.2,2.3,18.9,5.0,-1.4,93,87,81,29.85,29.78,1,0,0,0.00
2013-2-13,28.6,14.5,8.1,26.0,11.7,4.6,93,88,83,29.85,29.81,1,0,0,0.00
2013-2-14,27.7,23.0,16.8,21.1,16.5,12.9,90,76,60,29.82,29.41,6,1,2,0.00
2013-2-15,22.3,6.8,-6.2,17.9,3.0,-10.7,91,84,77,30.09,29.51,6,2,5,0.00
2013-2-16,8.0,-4.4,-11.9,2.7,-8.7,-16.7,89,81,71,30.15,29.93,2,0,0,0.00
2013-2-17,-2.0,-5.8,-10.3,-4.5,-9.7,-14.7,89,83,79,30.19,29.87,5,1,2,0.00
2013-2-18,-2.4,-15.4,-22.5,-7.9,-20.4,-27.6,88,78,71,30.29,30.17,3,0,4,0.00
2013-2-19,6.3,-11.6,-22.5,-0.8,-17.4,-29.2,89,75,65,30.17,29.63,5,0,8,0.00
2013-2-20,9.0,-3.1,-12.3,0.3,-9.6,-17.7,88,73,61,29.63,29.43,7,2,0,0.00
2013-2-21,4.8,-2.8,-6.8,-2.5,-8.3,-11.6,89,77,68,29.49,29.39,7,2,7,0.00
2013-2-22,2.2,-8.0,-15.5,-3.0,-12.8,-21.4,87,79,74,29.66,29.42,1,0,1,0.00
2013-2-23,4.5,-4.3,-14.3,1.4,-9.3,-19.9,89,79,70,29.59,29.37,2,0,0,0.00
2013-2-24,17.1,-0.3,-8.0,9.3,-5.4,-13.1,93,79,69,29.73,29.39,1,0,0,0.00
2013-2-25,34.3,9.6,-5.6,26.4,4.3,-9.9,89,79,66,29.82,29.73,2,0,0,0.00
2013-2-26,35.4,17.5,7.3,23.8,10.7,3.2,92,75,58,29.82,29.53,5,1,0,0.00
2013-2-27,38.5,22.9,12.0,25.4,14.2,5.9,84,70,53,29.53,29.38,5,1,5,0.00
2013-2-28,39.9,22.1,12.7,23.7,13.1,7.5,85,69,49,29.54,29.44,3,0,0,0.00
2013-3-1,12.9,8.4,3.9,9.6,4.1,-0.9,98,82,73,30.04,29.53,2,0,0,0.00
2013-3-2,28.0,10.1,0.7,22.7,5.7,-3.5,97,82,71,30.20,30.04,2,0,0,0.00
2013-3-3,30.3,12.4,1.9,22.5,7.8,-1.9,92,82,68,30.45,30.19,1,0,0,0.00
2013-3-4,38.8,18.8,7.1,27.3,12.6,2.4,93,77,60,30.50,30.33,2,0,0,0.00
2013-3-5,40.6,22.6,13.3,26.4,14.2,7.8,87,71,52,30.32,29.98,3,0,0,0.00
2013-3-6,28.9,15.0,7.4,19.7,7.8,1.8,90,73,59,29.99,29.91,2,0,0,0.00
2013-3-7,44.7,27.2,9.5,28.6,17.0,4.5,86,67,46,29.91,29.48,7,2,0,0.00
2013-3-8,48.4,35.9,26.4,35.8,24.6,17.1,80,64,46,29.69,29.53,5,1,0,0.04
2013-3-9,43.3,28.3,18.0,33.5,21.7,11.7,92,76,64,30.06,29.69,5,1,3,0.00
2013-3-10,34.9,21.5,8.8,26.8,16.5,4.3,91,81,69,30.34,30.06,6,1,6,0.00
2013-3-11,34.4,16.0,6.6,24.2,10.0,0.9,90,77,60,30.62,30.34,5,1,2,0.00
2013-3-12,33.7,13.6,2.5,15.5,3.5,-4.3,87,66,33,30.63,30.39,5,1,0,0.00
2013-3-13,20.2,6.1,-5.4,7.3,-6.0,-18.4,81,58,39,30.39,30.27,13,4,0,0.00
2013-3-14,19.5,3.9,-10.8,12.4,-10.9,-22.0,81,50,39,30.28,30.20,10,6,14,0.00
2013-3-15,27.7,10.9,1.2,10.4,-7.4,-15.3,68,44,29,30.21,29.98,9,4,7,0.00
2013-3-16,33.0,15.0,1.4,15.9,-0.2,-9.9,73,51,37,30.23,30.04,7,2,9,0.00
2013-3-17,25.8,9.9,1.2,13.9,0.6,-6.0,92,66,48,30.33,30.18,3,0,0,0.00
2013-3-18,28.2,9.4,-1.8,15.5,-0.5,-7.6,92,65,47,30.18,30.04,3,1,0,0.00
2013-3-19,24.3,8.5,-2.7,7.2,-3.4,-10.7,78,59,41,30.17,30.08,6,1,7,0.00
2013-3-20,18.0,2.6,-9.6,9.6,-5.3,-16.1,84,69,56,30.08,29.95,5,1,0,0.00
2013-3-21,27.0,9.3,-1.5,18.6,3.7,-6.4,93,78,63,30.14,30.02,5,1,3,0.00
2013-3-22,33.4,19.8,9.7,19.8,8.3,1.8,82,62,45,30.06,29.73,6,1,0,0.00
2013-3-23,19.9,4.4,-7.2,15.5,-3.4,-13.1,93,70,50,30.09,29.75,8,3,10,0.00
2013-3-24,16.9,2.4,-9.2,4.0,-4.7,-14.6,93,73,52,30.07,29.79,3,1,0,0.00
2013-3-25,13.1,4.4,-0.9,7.4,-0.1,-5.4,95,81,73,29.79,29.66,6,1,0,0.00
2013-3-26,10.1,-0.9,-11.0,0.3,-8.1,-18.4,88,71,58,30.22,29.79,7,3,7,0.00
2013-3-27,18.9,-0.7,-17.0,5.1,-9.0,-23.8,92,68,51,30.28,30.15,3,1,2,0.00
2013-3-28,40.6,16.2,-5.1,21.7,4.2,-10.7,89,61,38,30.15,29.94,3,0,0,0.00
2013-3-29,53.1,30.5,15.7,32.3,17.4,6.6,76,60,39,29.95,29.94,2,0,0,0.07
2013-3-30,48.0,29.4,13.2,30.1,17.8,7.7,82,63,44,30.25,29.94,3,0,0,0.00
2013-3-31,45.3,31.4,21.6,35.6,23.3,13.8,86,72,62,30.29,30.19,3,1,1,0.00
2013-4-1,44.8,30.2,21.5,33.3,22.5,13.1,91,74,56,30.20,30.11,7,2,0,0.01
2013-4-2,43.5,26.0,13.6,28.8,15.6,8.4,91,65,51,30.25,30.15,7,1,1,0.00
2013-4-3,36.7,23.4,12.9,18.9,8.3,-2.8,84,53,39,30.52,30.26,9,3,4,0.00
2013-4-4,35.4,20.4,8.7,15.5,0.9,-5.4,67,43,28,30.53,30.14,8,4,4,0.00
2013-4-5,20.6,11.8,-1.1,3.8,-4.4,-12.4,65,48,38,30.14,29.78,12,5,9,0.00
2013-4-6,26.0,9.9,-1.6,10.1,-4.9,-12.7,66,51,39,29.78,29.64,8,3,7,0.00
2013-4-7,10.3,4.9,-1.7,4.7,-1.2,-8.5,86,76,51,29.93,29.67,6,1,5,0.00
2013-4-8,19.2,5.2,-7.6,12.3,0.4,-12.4,89,80,70,29.95,29.50,2,0,0,0.00
2013-4-9,14.4,8.4,4.8,9.1,4.5,0.5,91,84,77,29.50,29.18,5,0,0,0.00
2013-4-10,21.4,7.7,-2.6,12.1,0.3,-8.6,90,72,58,29.98,29.47,5,1,3,0.00
2013-4-11,20.1,5.1,-9.6,9.1,-3.2,-14.8,81,69,52,30.27,29.98,5,1,0,0.00
2013-4-12,34.5,13.2,-3.6,20.8,3.1,-9.6,85,65,45,30.38,30.27,5,1,1,0.00
2013-4-13,36.3,17.8,0.1,17.2,5.5,-6.8,87,60,42,30.51,30.38,5,1,2,0.00
2013-4-14,29.9,18.7,6.6,23.2,10.9,-0.8,86,71,57,30.59,30.51,3,0,0,0.00
2013-4-15,36.6,24.1,14.9,17.2,9.5,4.1,88,55,38,30.58,30.50,9,4,3,0.00
2013-4-16,35.1,22.6,11.5,22.1,9.3,1.0,81,57,41,30.50,30.30,8,2,6,0.00
2013-4-17,37.1,24.8,10.3,20.4,10.8,2.2,78,56,44,30.43,30.30,8,2,6,0.00
2013-4-18,40.1,25.5,9.7,19.6,8.3,-0.1,70,49,31,30.48,30.43,8,3,9,0.00
2013-4-19,48.8,31.1,14.2,27.2,12.6,1.2,73,48,27,30.53,30.46,6,2,7,0.00
2013-4-20,53.3,35.7,18.3,27.4,16.4,5.5,69,47,30,30.47,30.34,5,1,0,0.00
2013-4-21,53.8,35.2,16.9,28.4,17.8,8.8,74,51,29,30.43,30.37,5,1,3,0.00
2013-4-22,56.8,36.9,19.0,27.9,19.1,9.6,72,50,26,30.53,30.43,3,1,1,0.00
2013-4-23,54.1,39.0,24.7,28.2,20.9,12.9,72,50,33,30.46,30.25,6,1,0,0.00
2013-4-24,39.4,32.9,27.3,32.8,27.1,17.3,96,80,55,30.25,30.04,9,2,6,0.04
2013-4-25,43.5,28.6,14.2,21.1,8.7,-0.1,67,44,30,30.16,30.06,7,2,9,0.00
2013-4-26,36.9,23.3,12.0,26.3,14.0,2.2,92,68,47,30.06,29.67,5,1,0,0.00
2013-4-27,38.3,26.1,14.4,24.0,10.9,-5.8,92,56,31,30.19,29.73,10,2,0,0.00
2013-4-28,43.5,23.8,4.8,24.7,8.1,-9.0,82,52,33,30.22,30.14,6,0,0,0.00
2013-4-29,34.6,27.2,16.9,28.4,19.8,8.6,93,73,59,30.18,30.13,6,0,0,0.00
2013-4-30,38.5,29.7,23.2,32.8,26.7,20.7,97,89,76,30.13,29.93,5,0,0,0.00
2013-5-1,40.6,27.8,18.1,33.1,22.0,9.9,92,79,65,29.93,29.73,6,2,5,0.00
2013-5-2,47.1,30.0,15.1,33.9,21.0,8.5,87,69,56,29.98,29.78,5,0,0,0.02
2013-5-3,40.8,31.3,23.2,34.3,26.2,18.7,93,81,67,30.01,29.91,6,1,0,0.09
2013-5-4,43.5,27.5,16.0,31.6,21.5,13.6,92,79,54,30.04,29.95,3,0,0,0.02
2013-5-5,47.8,33.7,18.7,29.5,20.6,13.8,87,61,40,30.18,30.04,5,0,0,0.01
2013-5-6,51.0,35.6,18.3,29.1,20.1,9.9,77,55,38,30.26,30.17,9,1,0,0.00
2013-5-7,51.9,38.3,21.6,30.6,22.7,14.0,79,55,37,30.32,30.26,3,0,0,0.00
2013-5-8,55.9,41.7,22.8,32.2,25.1,15.2,78,54,33,30.41,30.30,3,0,0,0.00
2013-5-9,66.0,47.9,26.4,34.0,27.3,19.9,79,49,26,30.43,30.28,5,0,0,0.00
2013-5-10,64.9,52.2,38.5,36.1,31.1,24.1,69,46,29,30.30,30.03,3,0,0,0.00
2013-5-11,65.2,52.1,38.7,38.5,31.0,24.4,65,46,31,30.03,29.75,5,0,1,0.00
2013-5-12,58.5,46.3,35.6,40.4,32.5,24.6,74,59,42,29.76,29.54,3,0,6,0.00
2013-5-13,41.4,30.2,18.7,29.4,13.2,3.8,68,49,40,29.73,29.58,6,0,6,0.00
2013-5-14,50.7,35.0,17.5,30.2,18.0,7.1,77,51,35,29.73,29.67,0,0,0,0.00
2013-5-15,57.0,39.4,20.1,30.4,20.3,8.8,76,48,32,29.76,29.69,5,0,0,0.00
2013-5-16,57.0,43.8,27.1,34.7,26.2,17.3,87,51,32,29.72,29.48,5,0,3,0.00
2013-5-17,40.6,32.7,23.1,33.2,28.7,21.1,97,85,62,29.71,29.45,6,3,0,0.03
2013-5-18,39.8,27.3,17.5,21.5,14.8,9.0,93,61,40,30.25,29.72,7,2,7,0.00
2013-5-19,52.6,35.6,14.9,29.4,16.7,5.2,80,47,32,30.63,30.25,7,0,0,0.00
2013-5-20,63.3,45.3,24.6,35.2,22.4,12.8,76,43,24,30.69,30.50,3,0,0,0.00
2013-5-21,69.4,51.9,29.7,34.7,24.3,15.6,80,37,19,30.52,30.22,5,0,0,0.00
2013-5-22,74.0,57.3,38.7,39.5,31.0,21.8,65,39,23,30.22,30.05,3,0,0,0.00
2013-5-23,68.1,54.1,39.7,45.0,36.4,27.1,70,52,38,30.19,30.08,1,0,0,0.00
2013-5-24,77.0,61.0,42.4,49.6,41.3,32.4,80,51,33,30.22,30.07,5,0,0,0.00
2013-5-25,82.8,66.6,46.9,50.6,37.1,30.2,72,36,19,30.07,29.91,5,0,3,0.00
2013-5-26,86.3,69.4,47.0,48.8,39.0,30.4,68,35,22,29.96,29.88,3,0,0,0.00
2013-5-27,90.8,70.9,53.8,51.2,42.8,36.1,66,38,26,29.98,29.86,5,0,4,0.00
2013-5-28,90.8,71.8,53.2,50.3,43.0,36.2,61,37,23,29.89,29.79,3,0,0,0.00
2013-5-29,88.6,73.5,55.2,45.3,38.9,33.9,53,31,18,29.82,29.76,5,0,0,0.00
2013-5-30,92.7,73.3,54.1,55.1,42.4,34.9,64,35,18,29.96,29.82,2,0,0,0.00
2013-5-31,88.3,70.8,56.8,58.1,42.8,31.8,67,40,16,30.08,29.96,3,0,0,0.00
2013-6-1,83.7,69.3,53.2,53.8,39.7,29.0,57,35,27,30.18,30.08,5,0,3,0.00
2013-6-2,86.7,68.4,48.0,53.9,44.0,35.1,69,44,27,30.17,29.97,5,0,0,0.00
2013-6-3,66.7,55.8,48.9,51.5,46.7,43.1,88,72,58,30.01,29.75,7,2,5,0.00
2013-6-4,61.5,52.3,46.2,48.8,45.9,42.6,94,80,59,29.75,29.64,6,1,0,0.07
2013-6-5,57.9,48.6,45.0,55.9,46.9,42.3,97,94,87,29.95,29.70,6,2,2,0.28
2013-6-6,69.7,56.2,44.0,59.5,48.7,42.9,98,78,49,29.97,29.88,3,0,2,0.04
2013-6-7,79.5,60.4,47.5,58.1,47.7,42.2,87,65,41,30.03,29.91,2,0,0,0.00
2013-6-8,80.0,64.3,49.3,58.5,47.1,41.2,81,56,34,30.21,30.03,3,0,0,0.00
2013-6-9,69.3,59.1,47.7,51.0,44.4,37.4,74,59,46,30.31,30.21,5,0,0,0.00
2013-6-10,61.1,52.8,46.1,46.7,43.1,39.1,90,70,54,30.35,30.31,3,0,2,0.00
2013-6-11,76.7,57.8,38.8,56.2,46.0,35.0,88,66,43,30.35,30.22,2,0,0,0.02
2013-6-12,78.9,62.8,44.8,47.6,38.0,32.8,71,42,26,30.24,30.16,6,0,0,0.00
2013-6-13,86.2,67.1,45.7,51.2,39.0,31.0,67,39,19,30.22,30.07,3,0,0,0.00
2013-6-14,90.7,72.7,51.7,54.9,42.9,29.2,62,37,19,30.18,30.10,5,0,0,0.00
2013-6-15,92.1,72.8,54.1,56.4,46.5,34.1,62,40,27,30.26,30.17,3,0,0,0.00
2013-6-16,96.1,78.7,63.1,63.7,55.1,45.4,61,45,33,30.26,30.17,5,1,0,0.00
2013-6-17,93.6,77.7,63.7,55.7,45.0,34.7,65,35,17,30.23,30.12,6,1,1,0.00
2013-6-18,94.8,76.7,57.4,52.6,44.5,35.8,50,33,22,30.14,29.90,5,0,0,0.00
2013-6-19,93.3,78.6,65.7,50.8,45.4,39.8,45,32,22,29.93,29.82,5,0,1,0.00
2013-6-20,93.9,77.0,59.5,57.5,47.9,39.6,57,37,23,29.94,29.80,3,0,0,0.00
2013-6-21,78.4,64.3,56.8,67.1,51.0,42.5,88,64,35,29.93,29.80,5,1,0,0.03
2013-6-22,84.8,66.3,47.7,58.9,48.4,41.0,84,56,34,29.90,29.72,6,0,0,0.00
2013-6-23,93.0,73.2,53.2,58.0,48.1,38.8,65,43,25,29.73,29.60,3,0,0,0.00
2013-6-24,96.9,77.8,59.2,60.4,50.0,42.3,61,40,23,29.67,29.62,5,1,4,0.00
2013-6-25,100.0,81.5,64.0,65.6,55.2,47.2,61,42,26,29.69,29.63,5,1,6,0.00
2013-6-26,99.1,82.5,65.0,64.6,55.7,48.2,61,42,27,29.73,29.67,5,0,1,0.00
2013-6-27,87.3,73.1,62.4,68.9,58.3,49.4,81,61,43,29.99,29.73,7,1,1,0.01
2013-6-28,88.3,72.8,60.1,64.4,55.5,50.6,75,56,38,30.05,29.99,3,0,2,0.00
2013-6-29,83.9,69.3,58.1,66.1,56.8,49.3,81,65,48,30.01,29.90,2,0,0,0.00
2013-6-30,91.8,74.3,58.8,65.6,55.6,44.8,72,53,38,29.91,29.64,3,0,0,0.00
2013-7-1,88.8,69.0,55.4,60.1,51.4,42.6,80,56,36,29.66,29.45,6,0,1,0.04
2013-7-2,78.1,63.4,50.2,56.1,46.1,39.2,81,55,35,29.71,29.53,5,0,3,0.00
2013-7-3,77.8,60.2,45.0,57.0,46.0,38.5,82,61,39,29.92,29.73,3,0,0,0.01
2013-7-4,73.5,58.9,47.1,54.2,42.9,35.6,83,57,35,30.00,29.87,6,0,0,0.00
2013-7-5,74.1,56.9,43.5,59.4,47.8,40.5,95,73,50,30.05,29.94,3,0,0,0.10
2013-7-6,83.5,62.2,46.4,56.0,47.3,40.6,82,61,36,29.96,29.74,1,0,0,0.00
2013-7-7,81.8,64.0,52.0,51.8,45.8,39.0,68,53,36,29.74,29.51,3,0,0,0.00
2013-7-8,65.7,55.0,46.0,55.6,48.6,40.5,94,79,64,29.71,29.55,2,0,0,0.09
2013-7-9,69.4,56.7,48.4,56.0,50.0,45.3,94,79,61,29.98,29.71,5,1,0,0.02
2013-7-10,60.9,53.1,48.4,53.4,48.9,45.9,96,86,73,30.04,29.96,3,1,5,0.14
2013-7-11,75.7,60.6,48.7,60.8,51.5,45.1,94,74,54,30.08,30.05,3,0,0,0.00
2013-7-12,88.5,68.0,49.5,53.8,45.8,36.8,78,49,26,30.07,29.97,2,0,0,0.00
2013-7-13,98.8,73.6,52.5,61.0,47.1,38.0,64,41,25,30.03,29.99,3,0,0,0.43
2013-7-14,94.4,75.9,57.0,65.4,50.5,42.5,62,43,25,30.13,30.03,2,0,0,0.00
2013-7-15,85.1,72.0,61.7,59.4,52.3,48.6,66,51,37,30.20,30.11,2,0,0,0.00
2013-7-16,68.2,62.8,58.9,56.0,51.4,46.9,74,66,56,30.18,30.11,1,0,0,0.00
2013-7-17,76.0,63.4,55.8,60.2,51.2,48.1,81,66,47,30.11,30.05,2,0,0,0.00
2013-7-18,82.2,63.9,55.2,61.8,52.2,46.3,96,68,46,30.15,30.05,2,0,0,0.55
2013-7-19,60.7,56.7,53.4,58.3,55.1,51.1,98,94,88,30.11,30.07,3,1,0,0.21
2013-7-20,61.0,53.8,51.2,56.1,51.7,49.9,98,93,78,30.11,30.08,3,1,0,0.04